STARLINK-1738, 46336

Orbit data source: Space-Track

STARLINK-1738, 46336 is a payload satellite owned by SpaceX/Seattle (US) in LEO that was launched on Thu, 03 Sep 2020 UTC via an FALCON 9 launch vehicle from the Air Force Eastern Test Range (AFETR). Payload-class satellites include a variety of spacecraft equipped with specific instruments for various scientific and technological missions. These include communications satellites like Starlink; space stations such as the ISS; scientific satellites like the Hubble; Earth observation satellites from companies like Planet Labs, Umbra, and HawkEye 360; GPS; miniature CubeSats for education and research; and military/defense satellites.

Loading next visibility...
Identifier
46336, 2020-062M
Orbit
LEO
Last TLE update
6 hours ago
Origin
Manufacturer
SpaceX/Seattle
Mission
Operational Commercial Communications
Bus & Motor
STARLINK, Unknown motor
Mass
260 kg wet, ~248 kg dry
Launch date (UTC)
2020-09-03 (5 years ago)
Launch vehicle
FALCON 9
Launch site
Air Force Eastern Test Range (AFETR)
Object type
Payload
Rocket body
Debris
Shape & HBR
Box + 1 Pan, 8.86 m
Radar Cross Section
13.562 m², Large (>1 m²)

Expand to show TLE details & history

TLE from 6 hours ago
0 STARLINK-1738
1 46336U 20062M   25167.57184341  .00000677  00000-0  64317-4 0  9991
2 46336  53.0551 111.2687 0001392  89.5522 270.5627 15.06395828264474
Epoch: 2025-06-16T13:43Z
TLE epoch observation values (Epoch: 2025-06-16T13:43:27.27Z)
Latitude
0.00001°
Longitude
0.32442°
Altitude
548.094 km
Speed
7.589 km/s
True Right ascension
07h 25m 04s
True Declination
0° 00' 00"
Sunlit
Object was in daylight at epoch
Visualization orbit readout
Latitude
-45.90934°
Longitude
-130.23145°
Altitude
563.682 km
Speed
7.579 km/s
Apparent Right ascension
20h 28m 13s
Apparent Declination
-48° 01' 33"
Sunlit
Object is in full shadow
Visualization observer readout
Local Sidereal Time
06:15:30
Azimuth
240.033° WSW
Elevation
-65.007°
Doppler factor
1
Orbital elements
Apogee altitude
548.459 km
Perigee altitude
546.531 km
Semi-major axis
6,925.632 km
Eccentricity
0.00014
Inclination
53.0551°
RAAN
111.2687°
Arg. of periapsis
89.5522°
True anomaly
Unknown
Mean anomaly
270.5627°
Eccentric anomaly
Unknown
Mean motion
3.76577 °/min
Orbital period
95.6 mins
BSTAR
0.000064317
Loading maneuver chart data...
Loading SW <> Apogee altitude chart data...
Loading historical data...
Loading historical data...
Loading historical data...
Loading historical data...
Loading historical data...
Loading historical data...
Loading historical data...

STARLINK-1738 Visibility forecast

Observer location: undefined°, undefined°

Span
Click to sort rows by Start time (UTC) header in descending order
Start Az.
Max El. time (UTC)
Max El. Az.
Max El.
End time (UTC)
End Az.
4 mins2025-06-16 21:50:41.617Z157.825° S2025-06-16 21:52:41.617Z122.707° SE16.98°2025-06-16 21:54:41.617Z90.312° ESE
6 mins2025-06-16 23:28:41.617Z244.604° WSW2025-06-16 23:31:41.617Z330.837° NNW41.636°2025-06-16 23:34:41.617Z42.124° NE
5 mins2025-06-17 04:31:41.617Z349.34° N2025-06-17 04:33:41.617Z34.209° NE22.972°2025-06-17 04:36:41.617Z82.024° E
6 mins2025-06-17 06:10:41.617Z298.676° NW2025-06-17 06:12:41.617Z258.137° W40.329°2025-06-17 06:16:41.617Z143.744° SSE
|